D-STAR ONE SPARROW

导读 | 豆包AI

D-STAR ONE SPARROW是德国轨道系统公司研发的3U立方通信试验卫星,于2018年12月27日随俄罗斯联盟-2.1a火箭,在东方发射场以一箭28星方式成功发射。它进入585千米太阳同步轨道,配备四个D-Star功能无线电模块,以半双工模式运行,主要服务业余无线电通信,作为中继器提供业余无线电信号转发,发射后多国很快成功接收其遥测信号,目前仍可供爱好者追踪观测。

基本信息
目录编号:
43881
目录名称:
D-STAR ONE SPARROW
国际标识:
2018-111F
轨道中心:
EARTH
卫星名称:
D-STAR ONE SPARROW
卫星全名:
--
卫星状态:
在轨 (已飞行2635 天)
发射日期:
2018-12-27 UTC
国别 :
德国 (DE)
星等 :
--
轨道信息
数据来源 国际轨道数据
星历时间: 2026-03-15T02:12:58+0800
13小时前
查看轨道信息
半长轴: 6778.269km
偏心率: 0.0002881
轨道倾角: 97.610°
近地点辐角 33.013°
升交点赤经 7.216°
平近点角 327.131°
近地点: 398.179km
远地点: 402.085km
周期: 92.563分钟
每日圈数: 15.556956
详细信息
使用方式:
暂无
2D轨道图
3D轨道图
轨道高度分析图
轨道倾角分析图
轨道综合分析图
查看轨道综合分析图